Archiv

Tageswerte

Alle gespeicherten Messwerte deiner Wetterstation.

Ausgewählter Tag15.01.2024
← Vortag Nächster Tag → Heute
Messpunkte288
Max Temperatur0,3 °C
Min Temperatur-1,5 °C
Ø Temperatur-0,8 °C
Regen0,0 mm
Stärkste Böe26,6 km/h

Messwerte vom 15.01.2024

288 gespeicherte Messwerte

Diagramm anzeigen
ZeitTemperaturFeuchteDruckWindBöeRichtungRegenUVHelligkeit
23:59-0,9 °C89 %992,9 hPa5,2 km/h10,8 km/h280°0,0 mm
23:54-0,9 °C89 %992,9 hPa7,0 km/h15,0 km/h291°0,0 mm
23:49-0,9 °C89 %992,9 hPa7,2 km/h10,8 km/h208°0,0 mm
23:44-0,9 °C90 %992,9 hPa5,2 km/h10,3 km/h277°0,0 mm
23:39-0,9 °C90 %992,9 hPa5,3 km/h12,2 km/h224°0,0 mm
23:34-0,9 °C90 %992,9 hPa6,9 km/h16,1 km/h295°0,0 mm
23:29-1,0 °C91 %991,9 hPa5,9 km/h9,7 km/h308°0,0 mm
23:24-1,0 °C92 %991,9 hPa6,2 km/h8,9 km/h322°0,0 mm
23:19-1,0 °C92 %991,9 hPa6,1 km/h9,7 km/h262°0,0 mm
23:14-1,0 °C93 %991,9 hPa5,4 km/h9,3 km/h286°0,0 mm
23:09-1,0 °C94 %991,9 hPa5,4 km/h11,4 km/h311°0,0 mm
23:04-1,0 °C95 %991,9 hPa4,5 km/h8,5 km/h305°0,0 mm
22:59-1,0 °C95 %991,9 hPa2,5 km/h5,3 km/h308°0,0 mm
22:54-1,0 °C95 %991,9 hPa3,1 km/h7,1 km/h316°0,0 mm
22:49-1,0 °C95 %991,9 hPa3,5 km/h6,4 km/h312°0,0 mm
22:44-1,0 °C95 %991,9 hPa5,0 km/h14,3 km/h313°0,0 mm
22:39-0,9 °C95 %991,9 hPa10,5 km/h25,9 km/h289°0,0 mm
22:34-0,9 °C94 %991,9 hPa5,1 km/h24,8 km/h306°0,0 mm
22:29-0,9 °C94 %990,9 hPa6,4 km/h11,1 km/h305°0,0 mm
22:24-0,9 °C94 %990,9 hPa6,8 km/h11,4 km/h310°0,0 mm
22:19-0,9 °C94 %990,9 hPa5,0 km/h8,2 km/h270°0,0 mm
22:14-0,9 °C93 %990,9 hPa5,9 km/h9,7 km/h287°0,0 mm
22:09-1,0 °C93 %990,9 hPa4,4 km/h11,1 km/h325°0,0 mm
22:04-1,0 °C93 %990,9 hPa5,9 km/h10,8 km/h272°0,0 mm
21:59-1,1 °C94 %990,9 hPa6,9 km/h10,3 km/h302°0,0 mm
21:54-1,1 °C94 %990,9 hPa4,6 km/h10,8 km/h276°0,0 mm
21:49-1,2 °C94 %990,9 hPa6,8 km/h12,2 km/h301°0,0 mm
21:44-1,2 °C94 %990,9 hPa5,6 km/h11,1 km/h244°0,0 mm
21:39-1,2 °C94 %990,9 hPa5,3 km/h11,4 km/h297°0,0 mm
21:34-1,2 °C94 %990,9 hPa3,4 km/h8,9 km/h267°0,0 mm
21:29-1,2 °C94 %990,9 hPa3,5 km/h8,5 km/h271°0,0 mm
21:24-1,2 °C94 %990,9 hPa3,2 km/h6,8 km/h292°0,0 mm
21:19-1,2 °C94 %990,9 hPa3,8 km/h8,9 km/h288°0,0 mm
21:14-1,1 °C94 %989,8 hPa3,8 km/h7,1 km/h292°0,0 mm
21:09-1,0 °C94 %989,8 hPa3,7 km/h9,3 km/h300°0,0 mm
21:04-1,0 °C92 %989,8 hPa5,6 km/h10,3 km/h285°0,0 mm
20:59-1,0 °C91 %989,8 hPa6,1 km/h10,8 km/h260°0,0 mm
20:54-1,1 °C91 %989,8 hPa3,6 km/h8,5 km/h275°0,0 mm
20:49-1,2 °C92 %989,8 hPa2,7 km/h8,5 km/h259°0,0 mm
20:44-1,2 °C93 %989,8 hPa3,6 km/h8,5 km/h242°0,0 mm
20:39-1,2 °C93 %989,8 hPa3,8 km/h9,7 km/h235°0,0 mm
20:34-1,2 °C94 %989,8 hPa2,9 km/h6,1 km/h235°0,0 mm
20:29-1,2 °C94 %989,8 hPa3,8 km/h8,5 km/h271°0,0 mm
20:24-1,2 °C94 %989,8 hPa2,4 km/h7,4 km/h275°0,0 mm
20:19-1,2 °C94 %989,8 hPa2,5 km/h8,5 km/h243°0,0 mm
20:14-1,2 °C94 %989,8 hPa2,8 km/h8,5 km/h237°0,0 mm
20:09-1,2 °C94 %989,8 hPa2,4 km/h7,4 km/h234°0,0 mm
20:04-1,2 °C94 %989,8 hPa3,2 km/h8,2 km/h295°0,0 mm
19:59-1,1 °C93 %989,8 hPa3,2 km/h9,3 km/h248°0,0 mm
19:54-1,1 °C93 %989,8 hPa3,1 km/h7,9 km/h247°0,0 mm
19:49-1,1 °C93 %989,8 hPa4,1 km/h7,9 km/h263°0,0 mm
19:44-1,1 °C93 %989,8 hPa3,3 km/h8,5 km/h248°0,0 mm
19:39-1,1 °C93 %989,8 hPa2,6 km/h7,4 km/h251°0,0 mm
19:34-1,1 °C93 %989,8 hPa3,3 km/h10,8 km/h250°0,0 mm
19:29-1,1 °C93 %989,8 hPa2,6 km/h5,3 km/h242°0,0 mm
19:24-1,1 °C93 %989,8 hPa4,7 km/h9,3 km/h248°0,0 mm
19:19-1,0 °C92 %989,8 hPa4,6 km/h8,9 km/h195°0,0 mm
19:14-1,0 °C92 %989,8 hPa4,5 km/h11,1 km/h271°0,0 mm
19:09-1,0 °C91 %989,8 hPa4,6 km/h7,4 km/h253°0,0 mm
19:04-1,0 °C91 %989,8 hPa4,4 km/h8,9 km/h259°0,0 mm
18:59-0,9 °C91 %989,8 hPa3,5 km/h8,9 km/h268°0,0 mm
18:54-0,9 °C90 %989,8 hPa6,5 km/h12,9 km/h253°0,0 mm
18:49-0,8 °C89 %989,8 hPa5,2 km/h12,2 km/h288°0,0 mm
18:44-0,7 °C89 %988,8 hPa5,0 km/h10,3 km/h285°0,0 mm
18:39-0,7 °C88 %988,8 hPa6,0 km/h11,1 km/h267°0,0 mm
18:34-0,7 °C87 %988,8 hPa4,8 km/h12,2 km/h297°0,0 mm
18:29-0,7 °C87 %988,8 hPa4,3 km/h9,3 km/h278°0,0 mm
18:24-0,7 °C86 %988,8 hPa5,1 km/h8,9 km/h278°0,0 mm
18:19-0,7 °C87 %988,8 hPa5,7 km/h9,7 km/h264°0,0 mm
18:14-0,7 °C87 %988,8 hPa3,5 km/h10,3 km/h300°0,0 mm
18:09-0,7 °C86 %988,8 hPa5,7 km/h10,3 km/h298°0,0 mm
18:04-0,7 °C86 %988,8 hPa6,3 km/h15,8 km/h281°0,0 mm
17:59-0,8 °C87 %988,8 hPa3,7 km/h10,8 km/h208°0,0 mm
17:54-0,9 °C87 %988,8 hPa4,2 km/h9,7 km/h237°0,0 mm
17:49-1,0 °C87 %988,8 hPa5,6 km/h9,7 km/h271°0,0 mm
17:44-1,0 °C89 %988,8 hPa4,4 km/h9,7 km/h271°0,0 mm
17:39-1,0 °C90 %988,8 hPa5,3 km/h9,7 km/h295°0,0 mm
17:34-1,0 °C90 %988,8 hPa4,2 km/h11,1 km/h312°0,0 mm
17:29-0,9 °C89 %988,8 hPa3,8 km/h9,7 km/h263°0,0 mm
17:24-0,8 °C89 %988,8 hPa4,4 km/h10,8 km/h277°0,0 mm
17:19-0,8 °C88 %988,8 hPa5,1 km/h9,7 km/h280°0,0 mm
17:14-0,9 °C88 %988,8 hPa6,5 km/h12,2 km/h263°0,0 mm
17:09-0,9 °C89 %988,8 hPa5,0 km/h12,6 km/h267°0,0 mm
17:04-0,9 °C89 %988,8 hPa3,3 km/h7,9 km/h273°0,0 mm
16:59-1,0 °C89 %988,8 hPa4,7 km/h9,7 km/h288°0,0 mm
16:54-1,0 °C89 %988,8 hPa4,2 km/h10,8 km/h333°0,0 mm
16:49-1,0 °C91 %988,8 hPa5,3 km/h10,3 km/h277°0,0 mm
16:44-1,0 °C91 %988,8 hPa5,6 km/h10,0 km/h278°0,0 mm
16:39-1,0 °C90 %988,8 hPa6,1 km/h11,4 km/h267°0,0 mm
16:34-1,1 °C89 %988,8 hPa5,8 km/h9,7 km/h273°0,0 mm
16:29-1,1 °C90 %987,8 hPa4,9 km/h7,9 km/h266°0,0 mm
16:24-1,2 °C91 %987,8 hPa3,3 km/h7,9 km/h242°0,0 mm
16:19-1,3 °C91 %987,8 hPa4,7 km/h9,7 km/h230°0,0 mm
16:14-1,4 °C91 %987,8 hPa5,5 km/h11,1 km/h243°0,0 mm
16:09-1,4 °C92 %987,8 hPa4,4 km/h8,9 km/h248°0,0 mm
16:04-1,5 °C93 %987,8 hPa2,6 km/h7,9 km/h238°0,0 mm
15:59-1,5 °C93 %987,8 hPa4,3 km/h8,9 km/h209°0,0 mm
15:54-1,5 °C94 %987,8 hPa5,0 km/h8,9 km/h241°0,0 mm
15:49-1,5 °C94 %987,8 hPa5,8 km/h10,8 km/h240°0,0 mm
15:44-1,5 °C94 %987,8 hPa3,7 km/h8,9 km/h290°0,0 mm
15:39-1,5 °C94 %987,8 hPa3,0 km/h8,5 km/h267°0,0 mm
15:34-1,4 °C94 %987,8 hPa6,4 km/h14,3 km/h260°0,0 mm
15:29-1,3 °C93 %987,8 hPa4,8 km/h9,7 km/h260°0,0 mm
15:24-1,3 °C93 %987,8 hPa4,9 km/h11,4 km/h276°0,0 mm
15:19-1,3 °C92 %987,8 hPa4,3 km/h8,5 km/h281°0,0 mm
15:14-1,3 °C92 %987,8 hPa4,0 km/h8,9 km/h231°0,0 mm
15:09-1,2 °C92 %987,8 hPa6,0 km/h11,1 km/h255°0,0 mm
15:04-1,2 °C92 %987,8 hPa4,5 km/h10,8 km/h232°0,0 mm
14:59-1,1 °C92 %987,8 hPa6,3 km/h14,3 km/h248°0,0 mm
14:54-1,0 °C91 %987,8 hPa3,6 km/h10,8 km/h234°0,0 mm
14:49-1,0 °C91 %987,8 hPa4,6 km/h11,1 km/h298°0,0 mm
14:44-1,0 °C90 %987,8 hPa9,3 km/h16,4 km/h255°0,0 mm
14:39-0,9 °C89 %987,8 hPa5,0 km/h11,1 km/h272°0,0 mm
14:34-0,7 °C89 %987,8 hPa4,6 km/h12,6 km/h225°0,0 mm
14:29-0,4 °C87 %987,8 hPa6,0 km/h12,6 km/h261°0,0 mm
14:24-0,2 °C85 %987,8 hPa5,6 km/h9,3 km/h222°0,0 mm
14:190,0 °C80 %987,8 hPa8,5 km/h15,0 km/h265°0,0 mm
14:14-0,1 °C78 %987,8 hPa6,8 km/h17,2 km/h223°0,0 mm
14:09-0,1 °C78 %987,8 hPa9,0 km/h19,0 km/h265°0,0 mm
14:04-0,1 °C79 %987,8 hPa5,7 km/h15,0 km/h209°0,0 mm
13:59-0,2 °C78 %987,8 hPa6,9 km/h12,6 km/h253°0,0 mm
13:54-0,2 °C79 %987,8 hPa6,0 km/h12,2 km/h107°0,0 mm
13:49-0,2 °C79 %987,8 hPa5,9 km/h11,1 km/h242°0,0 mm
13:44-0,2 °C80 %987,8 hPa6,0 km/h15,8 km/h248°0,0 mm
13:39-0,2 °C80 %987,8 hPa7,4 km/h14,3 km/h267°0,0 mm
13:340,0 °C80 %987,8 hPa8,1 km/h26,6 km/h227°0,0 mm
13:290,0 °C78 %987,8 hPa6,0 km/h12,6 km/h212°0,0 mm
13:240,0 °C76 %987,8 hPa6,4 km/h15,0 km/h207°0,0 mm
13:19-0,1 °C76 %987,8 hPa6,6 km/h10,8 km/h277°0,0 mm
13:140,0 °C77 %987,8 hPa7,4 km/h17,9 km/h249°0,0 mm
13:090,0 °C78 %987,8 hPa6,6 km/h13,2 km/h226°0,0 mm
13:040,1 °C76 %987,8 hPa7,2 km/h12,9 km/h306°0,0 mm
12:590,2 °C75 %987,8 hPa6,2 km/h11,1 km/h286°0,0 mm
12:540,2 °C73 %987,8 hPa6,3 km/h12,2 km/h248°0,0 mm
12:490,2 °C73 %987,8 hPa7,9 km/h15,0 km/h277°0,0 mm
12:440,1 °C73 %987,8 hPa8,2 km/h15,0 km/h239°0,0 mm
12:390,0 °C73 %987,8 hPa6,7 km/h12,6 km/h262°0,0 mm
12:34-0,1 °C73 %987,8 hPa9,6 km/h23,3 km/h249°0,0 mm
12:29-0,1 °C74 %987,8 hPa9,2 km/h20,1 km/h252°0,0 mm
12:24-0,1 °C74 %987,8 hPa7,5 km/h16,4 km/h238°0,0 mm
12:19-0,1 °C74 %987,8 hPa8,0 km/h19,0 km/h257°0,0 mm
12:14-0,2 °C74 %987,8 hPa6,9 km/h12,6 km/h234°0,0 mm
12:09-0,3 °C74 %987,8 hPa9,2 km/h16,1 km/h225°0,0 mm
12:04-0,4 °C75 %987,8 hPa6,4 km/h11,1 km/h226°0,0 mm
11:59-0,4 °C75 %987,8 hPa7,2 km/h11,4 km/h276°0,0 mm
11:54-0,4 °C75 %987,8 hPa9,6 km/h17,2 km/h215°0,0 mm
11:49-0,3 °C75 %987,8 hPa8,4 km/h24,0 km/h237°0,0 mm
11:44-0,3 °C75 %987,8 hPa8,4 km/h20,8 km/h219°0,0 mm
11:39-0,3 °C75 %987,8 hPa8,4 km/h15,8 km/h222°0,0 mm
11:34-0,3 °C75 %987,8 hPa9,3 km/h17,2 km/h237°0,0 mm
11:29-0,3 °C75 %987,8 hPa7,6 km/h17,9 km/h211°0,0 mm
11:24-0,3 °C75 %987,8 hPa9,9 km/h17,2 km/h246°0,0 mm
11:19-0,4 °C75 %987,8 hPa8,0 km/h12,6 km/h250°0,0 mm
11:14-0,4 °C75 %987,8 hPa9,0 km/h14,3 km/h249°0,0 mm
11:09-0,5 °C75 %987,8 hPa8,0 km/h15,8 km/h246°0,0 mm
11:04-0,6 °C75 %987,8 hPa8,8 km/h18,3 km/h228°0,0 mm
10:59-0,6 °C76 %987,8 hPa8,9 km/h18,3 km/h242°0,0 mm
10:54-0,7 °C75 %987,8 hPa8,2 km/h18,3 km/h271°0,0 mm
10:49-0,7 °C75 %987,8 hPa8,1 km/h19,3 km/h257°0,0 mm
10:44-0,7 °C76 %987,8 hPa9,1 km/h16,4 km/h247°0,0 mm
10:39-0,7 °C76 %987,8 hPa7,4 km/h15,0 km/h246°0,0 mm
10:34-0,7 °C76 %987,8 hPa6,7 km/h11,4 km/h274°0,0 mm
10:29-0,8 °C76 %987,8 hPa7,4 km/h15,8 km/h228°0,0 mm
10:24-0,8 °C77 %987,8 hPa8,2 km/h13,7 km/h244°0,0 mm
10:19-0,9 °C77 %987,8 hPa8,6 km/h15,8 km/h243°0,0 mm
10:14-1,0 °C77 %987,8 hPa8,1 km/h14,3 km/h256°0,0 mm
10:09-1,2 °C78 %987,8 hPa8,1 km/h16,4 km/h237°0,0 mm
10:04-1,2 °C78 %987,8 hPa8,7 km/h15,8 km/h266°0,0 mm
09:59-1,3 °C79 %987,8 hPa8,4 km/h15,8 km/h240°0,0 mm
09:54-1,3 °C79 %987,8 hPa8,5 km/h15,0 km/h252°0,0 mm
09:49-1,3 °C79 %987,8 hPa10,5 km/h17,2 km/h241°0,0 mm
09:44-1,3 °C80 %987,8 hPa5,2 km/h11,1 km/h284°0,0 mm
09:39-1,3 °C80 %987,8 hPa7,3 km/h11,4 km/h268°0,0 mm
09:34-1,3 °C80 %987,8 hPa8,5 km/h18,7 km/h257°0,0 mm
09:29-1,3 °C80 %987,8 hPa7,2 km/h12,2 km/h329°0,0 mm
09:24-1,3 °C79 %987,8 hPa9,1 km/h18,7 km/h250°0,0 mm
09:19-1,4 °C80 %987,8 hPa8,5 km/h17,2 km/h195°0,0 mm
09:14-1,4 °C80 %987,8 hPa10,5 km/h19,0 km/h246°0,0 mm
09:09-1,3 °C81 %987,8 hPa7,3 km/h16,4 km/h240°0,0 mm
09:04-1,3 °C80 %987,8 hPa10,6 km/h17,9 km/h248°0,0 mm
08:59-1,2 °C80 %987,8 hPa9,2 km/h17,5 km/h261°0,0 mm
08:54-1,2 °C80 %987,8 hPa11,0 km/h18,7 km/h246°0,0 mm
08:49-1,2 °C80 %987,8 hPa9,4 km/h17,9 km/h234°0,0 mm
08:44-1,1 °C79 %987,8 hPa6,2 km/h12,6 km/h246°0,0 mm
08:39-1,2 °C79 %987,8 hPa8,7 km/h17,2 km/h272°0,0 mm
08:34-1,2 °C79 %987,8 hPa9,0 km/h19,8 km/h261°0,0 mm
08:29-1,2 °C79 %987,8 hPa9,4 km/h20,1 km/h269°0,0 mm
08:24-1,2 °C80 %987,8 hPa8,9 km/h17,9 km/h221°0,0 mm
08:19-1,2 °C80 %987,8 hPa8,5 km/h18,3 km/h236°0,0 mm
08:14-1,2 °C80 %987,8 hPa6,7 km/h12,6 km/h257°0,0 mm
08:09-1,2 °C80 %987,8 hPa9,6 km/h17,9 km/h220°0,0 mm
08:04-1,2 °C80 %987,8 hPa6,7 km/h16,4 km/h267°0,0 mm
07:59-1,1 °C80 %987,8 hPa9,9 km/h17,2 km/h216°0,0 mm
07:54-1,1 °C80 %987,8 hPa7,7 km/h15,8 km/h213°0,0 mm
07:49-1,1 °C80 %987,8 hPa7,9 km/h16,4 km/h238°0,0 mm
07:44-1,0 °C80 %987,8 hPa7,9 km/h17,2 km/h247°0,0 mm
07:39-1,0 °C80 %987,8 hPa6,4 km/h15,0 km/h256°0,0 mm
07:34-1,1 °C80 %987,8 hPa8,1 km/h15,0 km/h254°0,0 mm
07:29-1,1 °C80 %987,8 hPa8,7 km/h17,5 km/h271°0,0 mm
07:24-1,0 °C80 %987,8 hPa5,6 km/h12,6 km/h254°0,0 mm
07:19-1,0 °C80 %987,8 hPa7,4 km/h15,8 km/h269°0,0 mm
07:14-1,0 °C80 %987,8 hPa5,2 km/h12,2 km/h232°0,0 mm
07:09-1,0 °C80 %987,8 hPa8,3 km/h15,8 km/h240°0,0 mm
07:04-1,0 °C79 %987,8 hPa9,1 km/h18,3 km/h241°0,0 mm
06:59-1,0 °C79 %987,8 hPa8,4 km/h15,0 km/h217°0,0 mm
06:54-1,0 °C80 %987,8 hPa8,4 km/h16,4 km/h272°0,0 mm
06:49-1,0 °C80 %987,8 hPa8,4 km/h16,4 km/h262°0,0 mm
06:44-1,0 °C80 %987,8 hPa8,0 km/h14,3 km/h249°0,0 mm
06:39-0,9 °C80 %987,8 hPa7,5 km/h18,3 km/h256°0,0 mm
06:34-0,8 °C80 %987,8 hPa8,8 km/h16,4 km/h290°0,0 mm
06:29-0,8 °C80 %987,8 hPa8,4 km/h17,2 km/h252°0,0 mm
06:24-0,8 °C80 %987,8 hPa10,4 km/h18,7 km/h254°0,0 mm
06:19-0,8 °C80 %987,8 hPa9,9 km/h18,7 km/h276°0,0 mm
06:14-0,9 °C81 %987,8 hPa8,1 km/h19,0 km/h286°0,0 mm
06:09-0,9 °C80 %987,8 hPa10,5 km/h21,9 km/h219°0,0 mm
06:04-0,9 °C81 %987,8 hPa9,1 km/h15,8 km/h258°0,0 mm
05:59-0,9 °C81 %987,8 hPa8,7 km/h16,4 km/h166°0,0 mm
05:54-1,0 °C81 %987,8 hPa8,5 km/h19,0 km/h251°0,0 mm
05:49-0,9 °C81 %987,8 hPa7,9 km/h15,8 km/h265°0,0 mm
05:44-0,9 °C81 %987,8 hPa7,3 km/h14,3 km/h251°0,0 mm
05:39-0,9 °C81 %987,8 hPa7,6 km/h16,4 km/h229°0,0 mm
05:34-0,9 °C81 %987,8 hPa9,5 km/h15,8 km/h258°0,0 mm
05:29-0,9 °C81 %987,8 hPa7,9 km/h12,2 km/h266°0,0 mm
05:24-1,0 °C81 %987,8 hPa8,9 km/h19,3 km/h254°0,0 mm
05:19-1,0 °C82 %987,8 hPa9,2 km/h18,3 km/h261°0,0 mm
05:14-0,9 °C82 %987,8 hPa6,5 km/h15,8 km/h194°0,0 mm
05:09-0,9 °C83 %987,8 hPa8,8 km/h16,4 km/h262°0,0 mm
05:04-0,9 °C83 %987,8 hPa8,7 km/h15,8 km/h226°0,0 mm
04:59-0,9 °C84 %987,8 hPa8,1 km/h19,3 km/h255°0,0 mm
04:54-0,9 °C84 %987,8 hPa7,3 km/h13,7 km/h264°0,0 mm
04:49-0,9 °C85 %987,8 hPa6,9 km/h14,3 km/h253°0,0 mm
04:44-0,7 °C85 %987,8 hPa8,3 km/h18,7 km/h237°0,0 mm
04:39-0,6 °C82 %987,8 hPa7,3 km/h15,0 km/h224°0,0 mm
04:34-0,6 °C82 %987,8 hPa8,1 km/h15,0 km/h272°0,0 mm
04:29-0,5 °C81 %987,8 hPa6,0 km/h12,2 km/h285°0,0 mm
04:24-0,5 °C82 %987,8 hPa6,2 km/h11,1 km/h247°0,0 mm
04:19-0,5 °C82 %987,8 hPa6,1 km/h15,8 km/h237°0,0 mm
04:14-0,5 °C82 %987,8 hPa7,8 km/h17,5 km/h261°0,0 mm
04:09-0,5 °C82 %987,8 hPa9,4 km/h15,8 km/h263°0,0 mm
04:04-0,5 °C82 %987,8 hPa5,7 km/h14,3 km/h230°0,0 mm
03:59-0,5 °C82 %987,8 hPa7,1 km/h16,4 km/h256°0,0 mm
03:54-0,5 °C82 %987,8 hPa7,6 km/h15,0 km/h271°0,0 mm
03:49-0,5 °C82 %987,8 hPa7,2 km/h16,4 km/h234°0,0 mm
03:44-0,4 °C83 %987,8 hPa5,2 km/h10,0 km/h230°0,0 mm
03:39-0,4 °C83 %987,8 hPa7,4 km/h15,0 km/h232°0,0 mm
03:34-0,4 °C83 %987,8 hPa6,3 km/h12,6 km/h279°0,0 mm
03:29-0,4 °C82 %987,8 hPa7,1 km/h21,1 km/h253°0,0 mm
03:24-0,4 °C82 %987,8 hPa6,9 km/h11,4 km/h232°0,0 mm
03:19-0,4 °C83 %987,8 hPa5,9 km/h10,8 km/h133°0,0 mm
03:14-0,4 °C83 %987,8 hPa6,8 km/h14,3 km/h307°0,0 mm
03:09-0,4 °C82 %987,8 hPa6,4 km/h11,4 km/h291°0,0 mm
03:04-0,4 °C82 %987,8 hPa6,0 km/h15,0 km/h280°0,0 mm
02:59-0,4 °C83 %987,8 hPa7,5 km/h14,3 km/h283°0,0 mm
02:54-0,3 °C83 %987,8 hPa7,0 km/h11,4 km/h257°0,0 mm
02:49-0,4 °C82 %987,8 hPa7,5 km/h16,4 km/h235°0,0 mm
02:44-0,4 °C83 %987,8 hPa6,9 km/h14,3 km/h260°0,0 mm
02:39-0,4 °C83 %987,8 hPa7,2 km/h12,2 km/h239°0,0 mm
02:34-0,4 °C83 %987,8 hPa5,6 km/h16,4 km/h251°0,0 mm
02:29-0,3 °C83 %987,8 hPa7,4 km/h17,9 km/h287°0,0 mm
02:24-0,3 °C84 %987,8 hPa6,6 km/h11,4 km/h246°0,0 mm
02:19-0,3 °C84 %987,8 hPa7,4 km/h13,2 km/h261°0,0 mm
02:14-0,3 °C84 %988,8 hPa4,4 km/h8,9 km/h80°0,0 mm
02:09-0,2 °C84 %988,8 hPa4,6 km/h11,1 km/h293°0,0 mm
02:04-0,2 °C84 %988,8 hPa6,4 km/h11,4 km/h253°0,0 mm
01:59-0,2 °C84 %988,8 hPa4,8 km/h9,3 km/h280°0,0 mm
01:54-0,1 °C83 %988,8 hPa6,2 km/h10,3 km/h257°0,0 mm
01:49-0,1 °C83 %988,8 hPa8,8 km/h12,6 km/h282°0,0 mm
01:44-0,1 °C83 %988,8 hPa4,6 km/h8,9 km/h295°0,0 mm
01:39-0,1 °C83 %988,8 hPa6,9 km/h12,6 km/h293°0,0 mm
01:34-0,1 °C83 %988,8 hPa7,9 km/h15,8 km/h263°0,0 mm
01:29-0,1 °C83 %988,8 hPa5,8 km/h10,8 km/h278°0,0 mm
01:24-0,1 °C83 %988,8 hPa7,4 km/h12,2 km/h288°0,0 mm
01:19-0,1 °C84 %988,8 hPa4,3 km/h9,3 km/h289°0,0 mm
01:140,0 °C84 %988,8 hPa6,5 km/h12,6 km/h282°0,0 mm
01:090,0 °C84 %988,8 hPa4,4 km/h11,1 km/h265°0,0 mm
01:040,1 °C83 %988,8 hPa5,4 km/h11,4 km/h281°0,0 mm
00:590,1 °C83 %988,8 hPa7,7 km/h15,0 km/h290°0,0 mm
00:540,1 °C83 %988,8 hPa7,1 km/h14,3 km/h256°0,0 mm
00:490,2 °C83 %988,8 hPa7,0 km/h14,3 km/h280°0,0 mm
00:440,2 °C82 %988,8 hPa8,3 km/h20,4 km/h254°0,0 mm
00:390,2 °C82 %988,8 hPa7,5 km/h12,6 km/h251°0,0 mm
00:340,2 °C82 %988,8 hPa6,3 km/h17,9 km/h264°0,0 mm
00:290,2 °C82 %989,8 hPa4,8 km/h16,4 km/h249°0,0 mm
00:240,2 °C82 %989,8 hPa6,0 km/h11,1 km/h256°0,0 mm
00:190,2 °C82 %989,8 hPa5,1 km/h10,3 km/h255°0,0 mm
00:140,2 °C82 %989,8 hPa5,6 km/h12,2 km/h229°0,0 mm
00:090,2 °C82 %989,8 hPa8,6 km/h15,8 km/h225°0,0 mm
00:040,3 °C82 %989,8 hPa8,3 km/h17,9 km/h280°0,0 mm